GEFSSGP_500_meanwind_246.txt.gz
Wind_Speed
3 3 3 3 4 4 3 3 2 2 2 2 2 2 2 2 2 2 3 3 4 4 4 4 5 4 5 5 5 6 7 7 7 7 7 7 7 7 7 7 7 7 7 6 7 6 6 6 6
3 3 3 3 3 4 3 3 2 2 2 2 2 2 2 2 2 3 4 4 5 5 5 5 6 6 6 6 7 7 7 7 7 7 7 7 7 7 7 7 8 8 8 7 7 6 7 7 6
2 3 3 3 3 3 3 3 2 2 2 3 3 3 3 3 3 4 4 5 5 5 6 6 6 7 7 7 7 7 7 7 7 7 8 8 7 7 7 8 8 8 8 8 8 7 7 7 7
2 3 3 3 3 3 3 3 3 3 3 3 3 3 3 4 4 5 5 5 6 6 6 6 7 7 7 7 7 7 8 8 7 8 7 7 7 7 7 8 9 9 8 8 8 8 8 8 8
2 2 3 2 2 3 3 3 3 3 3 3 3 3 4 5 5 6 6 6 6 6 7 7 7 7 7 7 7 7 7 7 7 7 7 7 7 7 7 8 8 8 9 9 9 9 9 8 8
1 2 3 3 3 3 3 3 3 3 3 3 4 4 5 5 6 6 6 7 7 7 8 7 7 7 7 7 8 8 7 7 7 8 8 8 8 8 8 8 8 9 9 10 10 9 9 9 8
1 2 2 3 3 3 3 3 3 3 3 4 4 5 5 6 6 6 6 6 7 7 8 7 7 7 7 8 8 8 8 7 7 8 8 8 8 8 8 8 9 9 9 9 10 10 9 9 9
2 2 2 3 3 3 3 3 3 3 4 5 5 5 6 6 6 6 6 6 7 7 7 8 8 8 8 8 8 9 8 8 8 8 8 8 8 8 8 8 8 8 9 9 10 10 10 10 10
2 2 2 3 3 3 3 3 3 4 5 5 5 5 6 6 6 7 7 7 7 8 8 8 8 9 9 8 9 9 8 8 8 8 8 8 8 7 7 7 8 8 8 9 9 9 9 9 9
3 3 3 3 4 4 4 4 4 5 5 5 6 6 6 7 7 7 8 8 8 8 8 8 8 9 9 9 9 8 8 8 8 8 8 8 7 7 7 7 8 8 8 9 9 10 10 9 9
4 4 4 5 5 5 4 4 5 5 6 6 6 7 7 7 7 8 8 8 8 8 8 8 8 8 8 8 8 8 8 8 8 8 8 8 7 8 8 8 7 8 8 8 8 9 9 10 10
6 5 5 5 5 5 5 6 6 6 7 7 7 7 7 7 8 8 9 8 8 8 8 8 8 8 8 8 8 8 8 7 7 7 7 7 7 7 7 7 7 7 8 7 8 9 9 9 10
7 7 7 6 6 6 7 7 7 7 7 8 8 8 8 8 8 9 9 9 8 8 8 8 8 8 8 9 9 8 8 7 7 7 7 7 7 7 7 8 8 7 7 7 8 8 8 9 10
8 8 8 8 7 7 8 8 9 9 9 9 9 9 9 9 9 9 9 9 9 9 9 9 9 8 8 9 9 9 8 8 8 7 7 7 7 7 7 7 8 8 8 8 8 8 8 8 9
9 9 9 9 9 9 9 9 10 10 10 10 10 10 10 10 10 10 10 10 10 9 9 9 9 9 9 9 9 9 9 8 7 7 7 6 6 6 6 7 7 8 8 8 8 8 8 8 9
10 10 10 10 11 11 11 11 11 11 11 11 11 11 11 11 11 11 10 10 10 10 9 10 9 9 9 9 8 8 8 8 7 7 6 6 6 6 6 7 7 7 7 8 8 8 8 8 8
11 11 12 12 12 12 12 12 12 13 12 12 12 12 12 12 12 12 12 11 11 11 10 9 9 8 8 8 8 7 8 8 8 7 7 7 7 6 7 7 7 7 7 7 8 8 7 8 8
12 13 13 13 13 13 13 13 13 14 13 13 13 13 13 13 12 13 13 12 12 11 10 10 9 9 9 9 8 8 8 8 8 8 8 8 8 7 8 8 8 8 8 8 7 7 8 7 7
13 14 14 14 14 14 14 14 14 14 14 14 14 14 13 13 13 13 13 13 12 12 11 11 10 10 9 9 9 9 9 8 8 9 9 9 8 8 8 8 8 8 8 8 8 8 8 7 6
14 14 14 15 15 15 15 15 14 14 14 15 14 14 14 14 14 13 13 13 13 12 11 11 10 10 10 10 9 10 10 10 9 9 9 9 10 9 9 8 8 7 7 7 7 7 7 7 7
15 15 15 15 16 16 16 16 15 14 15 15 15 15 15 15 14 14 13 13 13 13 12 11 11 11 11 10 10 10 10 11 10 10 9 9 10 10 10 9 9 8 8 8 8 8 7 7 7
15 15 16 16 16 16 15 16 14 14 15 15 15 15 15 15 14 14 13 13 13 13 13 12 11 11 11 11 11 10 11 11 11 10 11 11 11 11 10 10 10 10 10 10 9 9 9 9 9
16 16 16 16 17 17 16 16 15 14 14 15 15 15 15 14 14 14 14 14 14 14 13 13 13 13 13 13 12 12 11 11 11 11 11 11 11 11 11 11 11 11 11 11 10 10 11 10 10
16 16 16 16 16 17 16 16 16 14 14 14 14 14 14 14 14 15 15 14 14 14 14 14 14 15 15 14 14 13 13 13 12 12 12 12 12 12 12 12 13 12 12 11 12 12 11 11 10
16 16 16 16 17 17 16 16 16 14 14 14 14 14 14 15 15 15 15 15 15 15 15 16 16 16 16 15 15 15 15 14 14 14 14 13 13 13 13 13 13 13 13 12 13 13 13 12 12
16 16 16 16 17 17 17 16 15 15 15 15 15 16 16 16 16 15 15 15 16 16 16 16 16 16 16 15 15 15 15 15 15 14 14 15 15 15 14 14 14 14 14 14 13 13 13 13 14
16 16 16 16 16 17 17 17 16 16 16 16 16 16 16 16 16 16 16 16 16 17 17 17 17 16 16 16 16 16 16 16 16 15 15 15 16 16 15 15 14 14 14 14 14 15 14 14 14
17 17 17 17 17 17 17 17 17 16 16 16 17 17 16 16 16 17 17 17 17 18 18 17 17 17 17 17 17 16 16 16 16 16 16 15 16 16 16 16 16 15 15 15 16 16 16 15 15
17 17 18 18 18 18 18 18 17 16 16 16 17 17 17 17 17 17 17 17 18 18 18 17 17 17 18 17 17 17 17 17 17 17 17 17 17 17 18 17 16 16 16 16 16 17 17 16 16
18 18 18 18 18 19 19 20 18 17 17 17 18 18 18 18 18 18 18 18 18 18 18 19 18 18 18 18 17 17 18 18 18 18 18 18 19 19 18 18 17 17 17 17 17 17 17 17 16

GEFSSGP_500_meanwind_252.txt.gz
Wind_Speed
3 3 3 3 3 4 4 5 5 5 5 5 5 5 5 5 5 6 7 6 6 6 7 7 8 8 8 8 8 8 8 8 8 8 8 8 8 8 8 8 8 8 8 8 8 7 7 7 7
2 2 2 3 3 4 4 4 4 4 5 5 6 5 6 6 6 6 7 7 7 7 7 7 8 8 8 8 8 8 8 8 8 8 8 8 9 9 9 9 9 8 8 9 8 8 7 8 8
2 2 2 3 3 4 4 5 5 5 5 6 6 5 6 6 6 7 8 8 8 8 8 8 8 8 9 9 9 9 8 8 8 8 8 8 9 9 9 9 9 9 9 9 9 9 8 8 8
2 2 2 3 3 4 4 5 5 5 6 6 6 6 6 7 7 8 8 8 8 8 9 9 8 8 9 9 9 9 9 9 9 9 9 8 9 9 9 10 10 9 8 9 9 9 8 8 8
2 2 2 3 4 5 5 5 5 6 6 6 6 6 7 8 8 9 9 9 9 9 9 9 9 9 9 9 9 8 8 8 9 9 9 9 9 9 10 10 9 9 8 8 9 9 9 9 9
3 3 3 4 5 6 5 5 5 6 6 6 7 7 7 8 9 9 9 9 9 9 9 9 10 10 10 9 9 9 8 8 9 9 10 10 9 9 9 9 9 9 9 9 9 9 9 9 9
4 4 4 4 5 6 5 5 6 6 7 7 7 7 8 8 9 9 9 9 9 9 9 10 10 10 10 9 9 9 9 9 9 10 10 10 9 9 9 9 9 9 9 9 9 10 10 9 9
4 4 4 4 5 5 5 5 6 6 6 6 7 8 8 8 9 9 10 10 10 10 10 10 10 10 9 9 10 9 10 10 10 11 10 10 9 9 9 9 9 9 9 9 9 10 10 10 10
5 5 5 5 6 6 6 6 6 6 7 7 8 9 9 9 10 10 10 10 10 10 10 11 10 10 9 9 9 10 10 10 10 11 10 10 9 9 9 9 9 9 9 9 9 9 9 10 10
5 5 5 6 7 7 7 7 7 7 8 8 9 10 10 10 10 10 10 10 10 10 11 11 10 10 10 10 10 10 10 10 10 10 10 9 9 9 9 8 8 8 9 8 9 8 9 10 10
6 6 6 7 8 8 8 8 8 9 9 10 10 11 11 11 11 11 11 11 11 11 11 11 11 11 11 11 11 10 10 10 10 9 9 9 9 9 9 9 9 8 8 9 9 9 9 10 10
7 7 8 8 9 9 10 10 10 10 10 11 11 12 12 12 12 12 12 11 12 12 12 12 12 12 11 11 11 11 11 10 10 9 8 8 8 8 9 8 8 8 8 8 8 9 9 10 10
8 8 8 9 10 10 10 11 11 11 11 11 12 12 13 13 12 12 12 12 12 12 12 12 12 12 12 12 11 11 11 10 10 9 8 8 8 8 9 8 8 8 8 8 8 8 8 9 9
9 9 9 10 10 11 11 11 12 12 12 12 13 13 13 13 12 12 12 12 12 13 13 12 12 12 12 12 12 11 11 11 10 10 9 9 8 8 8 8 8 8 8 8 8 8 8 8 8
10 10 10 11 11 12 12 13 13 13 13 13 13 13 13 13 13 13 13 13 13 13 13 13 13 13 12 12 11 11 11 10 10 9 9 9 8 9 9 8 9 8 8 8 8 8 8 8 8
11 11 11 12 12 13 14 14 14 14 14 14 13 13 13 13 14 14 14 14 14 14 14 13 13 13 12 12 11 11 11 10 10 10 9 9 8 9 8 8 8 8 8 9 8 8 8 8 8
11 12 12 13 13 15 16 15 15 15 15 15 15 14 15 14 14 14 14 14 14 14 14 14 13 13 13 12 11 11 11 10 9 10 10 10 9 9 8 8 7 7 8 9 9 8 8 8 8
11 12 13 14 15 15 17 16 16 15 16 16 16 16 16 15 15 15 15 15 15 15 15 15 14 14 13 12 11 11 11 11 11 11 10 10 10 9 9 9 8 8 9 9 8 8 8 8 8
13 14 14 15 15 16 17 16 16 16 16 17 17 17 17 16 16 15 15 15 16 16 15 15 15 14 13 12 11 11 11 11 11 11 11 10 10 10 10 10 10 10 9 9 9 8 8 8 8
14 15 15 16 16 16 17 17 16 16 16 17 17 16 17 17 17 17 16 16 16 16 15 15 15 15 13 12 11 11 11 11 11 11 11 11 10 10 10 11 11 10 10 9 9 9 8 8 8
15 16 16 17 17 16 17 17 15 15 15 16 17 16 16 17 17 17 17 17 16 16 16 15 15 14 14 13 12 12 12 11 12 12 11 11 12 12 11 11 11 11 10 10 10 9 9 9 9
16 16 17 17 17 16 16 17 16 17 15 15 16 16 16 16 17 18 18 18 17 17 16 16 15 15 14 13 13 13 13 13 13 13 13 13 13 13 13 12 11 10 10 10 10 10 10 9 10
15 15 16 17 17 16 16 17 18 17 16 16 16 17 16 17 18 19 19 19 19 18 18 17 16 15 15 15 15 14 14 14 14 14 14 14 13 14 13 13 12 12 12 12 12 11 11 11 11
15 16 16 16 16 16 15 17 19 19 18 18 17 17 18 19 19 20 19 19 19 19 18 17 16 16 16 16 16 15 15 15 14 14 14 14 14 14 14 13 13 12 12 13 12 12 13 12 12
16 16 15 15 15 15 16 19 20 19 20 20 19 19 19 20 20 20 19 19 18 18 18 18 17 17 17 16 15 15 15 15 15 15 15 15 14 14 13 14 14 13 13 13 13 12 13 12 12
16 16 16 16 14 15 17 20 19 19 20 20 19 19 20 20 20 19 20 19 19 18 19 19 19 18 18 17 16 16 16 16 16 16 16 15 15 15 14 15 15 14 14 14 13 13 13 13 13
17 16 17 17 17 17 17 19 19 19 21 21 20 20 19 19 19 20 20 19 19 19 19 20 20 19 18 18 18 18 18 17 17 17 17 16 16 15 15 15 15 15 14 14 14 14 14 13 13
17 17 17 18 18 18 18 20 21 20 21 21 21 21 20 19 19 20 20 20 20 20 20 20 20 19 19 19 18 18 18 17 17 17 17 17 17 16 16 16 16 16 16 15 15 15 15 15 14
17 17 18 19 19 19 19 20 20 21 21 22 21 21 21 20 19 20 20 20 20 21 20 20 20 20 20 20 19 19 18 18 18 18 18 17 17 17 17 17 17 17 17 17 17 16 16 16 15
18 18 18 19 19 19 21 22 21 23 23 22 22 21 21 21 20 20 21 21 21 21 21 21 20 20 21 21 20 19 19 19 19 19 19 18 18 18 18 18 18 18 18 17 17 17 17 16 16

GEFSSGP_500_meanwind_258.txt.gz
Wind_Speed
2 2 3 3 2 2 3 3 4 5 5 5 5 5 5 5 5 5 5 6 6 6 6 6 6 6 7 7 7 7 7 7 7 7 8 8 9 8 8 8 8 8 8 8 8 8 8 7 8
2 3 2 2 2 2 3 3 4 4 4 5 5 5 5 5 5 5 5 6 6 6 6 6 7 7 7 7 7 7 8 8 7 7 8 8 9 9 9 8 8 8 8 8 8 8 8 8 8
2 2 3 3 2 3 3 3 3 4 4 4 5 5 5 5 5 5 6 6 6 6 6 7 7 7 8 8 8 8 8 8 8 8 8 9 9 9 9 9 9 9 9 9 9 9 9 8 8
3 3 3 3 3 3 3 3 3 4 4 4 4 5 5 5 6 6 6 6 7 7 7 8 7 8 8 8 7 7 8 8 8 8 8 9 9 10 9 9 9 9 9 9 9 8 9 8 8
3 4 4 4 4 3 3 3 4 4 4 5 5 5 5 6 6 6 6 6 7 7 8 8 8 8 8 8 7 8 8 8 9 8 8 9 9 10 9 9 9 9 8 8 8 8 8 8 8
3 4 4 4 4 3 3 4 4 5 5 5 5 5 6 6 6 6 6 7 7 8 8 8 8 8 8 8 7 7 7 8 8 8 8 8 8 9 9 9 9 8 8 8 8 8 8 8 8
5 4 5 4 4 4 3 4 4 4 4 5 6 6 6 7 7 6 6 7 8 8 8 8 7 7 7 7 7 7 7 8 8 8 8 8 8 9 9 9 9 9 9 9 9 8 9 9 9
4 4 4 4 4 4 4 4 5 5 5 5 6 6 7 7 7 7 7 7 8 8 8 7 7 7 7 7 7 8 7 8 8 8 8 8 9 9 8 8 8 9 9 9 9 9 9 9 9
5 5 4 4 4 4 5 5 5 5 5 6 6 7 7 7 8 8 8 8 9 8 8 8 7 8 8 8 8 8 8 8 8 8 8 8 9 9 8 8 8 9 9 9 9 9 9 9 9
6 5 5 5 5 5 5 5 5 6 6 7 7 8 8 8 8 8 8 9 9 9 8 8 8 8 8 8 8 8 9 9 9 8 8 8 8 9 8 8 8 9 9 9 9 9 9 9 9
6 5 4 5 6 5 6 6 6 7 7 7 8 8 8 8 8 8 8 9 9 8 9 9 8 9 9 9 9 9 9 9 9 8 9 8 8 8 8 8 8 8 8 8 9 9 9 9 9
7 6 6 6 6 7 7 8 8 8 8 8 8 8 8 8 8 8 8 8 8 8 9 9 9 9 9 9 9 9 9 9 9 9 9 8 8 8 8 8 8 8 8 8 8 8 9 9 10
7 7 7 7 7 7 8 8 8 9 9 8 8 8 8 9 9 9 9 9 9 9 9 10 10 10 10 9 9 10 10 10 9 9 9 8 7 7 7 7 7 7 8 7 7 8 8 9 9
7 8 7 7 8 8 9 9 9 10 10 9 9 9 9 9 9 10 10 10 10 9 10 10 11 10 10 10 10 9 9 9 9 9 8 8 7 6 6 6 6 7 7 7 7 7 8 8 8
9 9 9 9 9 9 9 10 10 10 10 10 10 9 10 10 10 10 11 11 11 10 10 10 11 11 11 10 10 10 10 9 9 8 8 8 8 7 6 7 6 6 6 7 7 7 7 8 8
11 10 10 10 10 10 10 10 10 11 10 11 10 10 10 11 11 11 11 12 12 11 11 11 11 11 11 11 11 10 10 10 9 8 8 8 8 8 7 7 7 6 6 6 6 7 7 7 6
11 10 10 10 10 10 10 10 10 11 11 10 10 11 11 11 12 12 12 12 12 12 11 11 11 11 11 11 11 11 10 9 9 8 8 8 8 8 8 8 7 7 6 7 7 7 7 6 6
10 10 10 11 10 11 10 10 11 11 11 10 10 11 11 12 12 12 12 11 12 12 12 12 11 12 11 11 11 11 11 10 9 8 8 8 8 8 8 8 8 8 7 7 7 7 7 7 7
11 11 11 11 11 11 11 10 11 11 11 10 10 11 11 12 11 12 12 11 12 12 12 12 12 13 12 12 11 11 10 10 9 9 8 9 9 9 9 9 9 9 8 8 8 8 8 8 8
12 11 11 11 11 11 11 11 11 11 11 10 10 11 11 11 11 11 12 12 12 12 12 12 12 13 13 13 11 10 10 10 10 9 8 9 10 10 9 9 9 9 10 9 9 9 9 9 9
12 13 12 12 11 11 12 10 11 11 11 10 11 11 12 12 12 12 12 12 13 13 13 13 13 14 14 13 12 11 10 10 10 9 9 9 9 9 9 10 10 10 10 10 10 10 9 9 9
12 13 13 12 12 11 13 11 10 11 11 11 11 12 12 12 12 13 12 13 13 14 14 14 14 14 14 14 13 12 11 11 10 10 10 10 10 10 10 10 10 10 10 10 10 10 10 9 9
13 13 13 12 12 12 13 12 11 12 12 12 12 12 12 12 13 13 14 14 14 14 15 15 15 15 15 15 14 13 12 12 11 11 11 11 11 10 10 10 10 10 11 11 11 11 11 11 11
13 13 13 13 13 13 13 13 13 13 13 13 13 12 12 13 14 14 15 15 15 16 16 16 16 16 16 15 14 14 13 13 12 11 11 11 11 11 10 10 10 10 11 11 11 11 12 12 12
14 14 14 14 14 14 13 15 15 14 14 14 14 14 14 15 15 15 15 15 16 17 17 17 17 17 16 15 15 14 14 13 13 12 12 11 11 11 11 11 12 12 11 11 12 12 12 13 13
14 14 14 15 15 15 15 16 15 15 15 14 14 15 15 15 16 16 16 16 16 17 17 17 17 17 17 16 16 15 15 15 14 13 13 13 12 13 13 13 13 13 13 13 13 13 13 13 13
15 15 15 16 17 17 16 15 15 15 15 15 15 16 17 16 17 17 17 17 17 17 18 18 18 17 17 17 16 16 16 16 15 15 15 15 15 14 14 14 14 14 14 13 13 13 13 13 13
15 15 16 17 18 19 18 17 17 16 15 16 17 17 17 18 18 18 18 18 18 18 18 18 19 18 18 17 17 17 17 17 17 17 17 17 16 16 15 15 15 15 14 14 15 14 14 14 14
15 16 17 18 19 20 20 18 18 18 18 17 17 18 18 18 19 19 20 19 19 19 19 19 19 19 19 18 17 17 18 17 17 17 17 18 18 17 17 17 17 16 16 16 16 16 16 16 15
16 16 17 19 19 20 21 19 18 19 19 18 18 18 18 18 19 20 20 20 19 19 20 19 19 19 19 19 18 18 18 18 18 18 18 18 19 18 18 18 18 18 18 18 17 17 17 17 17

GEFSSGP_500_meanwind_264.txt.gz
Wind_Speed
3 3 3 3 3 3 4 4 4 4 4 5 5 5 5 5 4 5 5 6 6 5 5 5 6 6 6 6 6 6 6 6 6 7 7 7 6 6 6 7 7 6 6 6 7 7 7 6 7
3 4 4 4 4 4 4 5 5 4 4 5 5 5 5 5 5 5 5 6 6 6 6 6 6 6 6 6 6 7 7 7 7 7 7 7 7 7 7 8 7 7 7 7 8 8 8 8 7
4 4 5 5 4 4 4 4 4 4 4 5 5 5 5 5 5 5 5 6 6 6 6 6 6 7 7 7 7 7 7 7 7 7 7 8 8 8 8 8 7 8 8 8 8 8 9 8 8
5 5 5 5 5 5 4 4 4 4 4 4 5 5 5 6 5 5 6 6 6 6 6 6 7 7 7 7 7 7 7 7 7 7 8 8 8 8 8 8 8 8 8 8 8 8 8 9 9
5 5 4 4 5 4 4 4 4 4 4 5 5 5 5 5 6 6 7 7 7 7 7 7 7 7 7 7 7 7 7 7 7 8 8 8 8 7 7 7 8 8 8 8 8 8 8 9 9
5 5 4 5 5 5 5 4 4 4 4 4 5 5 5 5 6 6 7 8 8 8 8 8 7 7 7 7 8 7 7 7 8 8 8 8 8 7 7 7 7 8 8 8 9 9 8 9 9
6 6 6 6 6 5 5 5 4 4 4 5 6 6 6 6 6 7 7 7 8 8 8 8 8 7 7 7 8 7 7 7 8 8 8 8 8 8 8 8 8 8 8 9 9 9 9 9 9
6 6 6 6 5 5 5 4 4 5 5 6 6 6 6 6 7 7 7 7 7 7 8 8 8 7 7 7 7 7 8 8 8 8 8 8 8 8 8 8 8 9 9 9 10 10 10 10 10
6 5 5 6 6 6 5 5 4 4 5 6 6 6 7 7 7 7 7 8 7 7 8 8 8 7 7 7 7 8 8 8 8 8 8 8 8 9 8 8 8 8 9 9 10 10 10 10 10
6 5 6 6 6 6 6 6 5 5 5 6 7 7 7 7 7 7 7 8 8 8 8 8 8 7 8 8 8 8 8 8 8 8 8 9 9 8 8 8 8 8 9 10 10 10 10 10 10
6 6 6 7 7 6 6 6 6 6 6 6 7 7 6 6 6 7 7 8 8 8 8 8 8 8 8 8 8 9 9 9 9 9 8 8 8 8 8 8 8 9 9 9 9 10 10 10 10
7 7 7 7 7 6 7 7 7 7 7 7 7 7 7 6 7 7 7 8 8 8 9 9 9 8 9 9 9 9 9 9 9 9 9 9 8 8 9 8 8 8 9 9 9 9 10 10 10
8 8 8 8 8 7 7 8 8 8 8 7 7 7 7 7 7 7 7 8 8 8 9 9 9 8 8 9 9 9 9 9 9 9 9 9 9 8 8 8 8 8 8 8 9 9 9 10 10
9 9 9 9 8 8 8 8 8 8 8 8 8 7 7 8 8 8 8 8 8 8 9 8 8 8 8 9 10 10 9 9 9 9 9 9 8 8 8 8 7 7 7 8 9 8 9 10 10
9 9 10 9 9 9 9 8 8 9 9 9 9 9 9 9 9 9 9 8 8 9 9 9 9 9 9 9 10 10 10 9 9 9 9 9 8 8 8 8 8 8 7 7 8 8 9 10 9
10 10 10 10 10 9 9 9 9 9 9 9 9 10 10 10 10 10 9 9 9 9 10 10 10 10 10 10 10 10 10 10 10 10 9 9 9 8 8 8 8 9 9 8 9 8 8 9 9
11 11 11 11 10 10 10 10 9 9 9 9 10 10 10 10 10 10 10 10 10 10 10 10 10 10 10 10 11 11 11 11 10 10 9 9 9 9 9 9 9 10 9 9 9 9 9 9 9
11 11 12 11 11 11 11 11 11 10 10 10 11 11 10 10 10 10 10 10 10 10 10 10 10 11 11 11 11 12 11 11 10 10 10 9 9 10 10 10 10 10 10 10 10 9 10 10 10
12 12 12 12 12 12 12 11 11 11 11 11 11 11 11 10 10 10 10 10 11 11 10 10 11 12 12 11 12 12 12 11 11 10 10 9 9 9 9 9 10 10 11 11 11 10 10 10 11
13 13 13 13 13 12 12 11 11 11 10 11 11 12 12 11 11 10 10 11 11 11 11 12 12 12 12 12 12 13 12 11 11 11 10 10 9 9 8 9 9 10 11 12 11 11 11 12 12
14 14 13 13 12 12 12 11 10 11 11 11 12 12 12 12 12 11 11 12 12 12 12 13 13 13 13 13 13 13 12 12 11 11 11 11 10 9 9 10 10 11 11 11 11 12 12 12 12
14 14 14 14 13 12 12 12 10 11 12 11 11 12 12 13 13 12 12 12 12 12 13 13 13 13 13 13 13 13 12 12 12 11 12 11 10 10 10 10 10 11 11 11 12 12 11 11 12
15 15 15 14 14 13 13 13 12 12 12 12 12 13 13 14 14 14 14 13 13 13 13 14 13 13 13 13 13 13 13 13 12 12 12 12 11 11 10 10 11 11 11 11 11 11 11 12 13
16 16 16 15 15 14 13 14 13 13 13 13 13 14 14 14 14 14 14 14 14 14 14 14 13 13 13 13 13 13 13 13 13 13 13 12 12 11 12 12 12 12 12 12 12 12 12 12 12
16 16 16 16 15 15 14 15 14 14 14 14 14 15 15 15 15 15 15 14 14 14 14 14 14 14 15 15 15 14 14 14 14 13 13 12 12 12 13 13 13 13 13 13 13 12 12 12 12
16 16 16 16 16 16 15 15 15 16 15 15 15 15 16 15 16 16 15 15 14 14 14 15 15 15 16 16 15 15 15 15 15 14 14 13 13 13 14 14 14 14 14 14 14 14 14 14 13
16 16 16 17 17 17 17 17 16 16 16 16 16 17 17 16 16 16 16 15 15 15 15 16 16 17 17 16 16 16 16 16 15 15 15 15 14 14 15 14 15 15 15 15 16 15 15 15 15
17 16 17 17 18 18 17 17 17 16 17 17 18 18 18 17 16 16 17 17 17 16 16 16 17 18 17 17 17 17 17 17 16 16 16 16 15 15 16 16 16 16 17 17 17 17 17 16 16
17 17 18 18 19 20 19 18 18 18 18 18 18 18 18 18 17 17 17 18 18 17 17 18 17 17 18 18 18 17 17 17 17 17 17 16 16 17 17 18 18 17 17 18 18 18 18 18 18
19 19 19 20 20 20 21 19 19 19 18 18 18 18 18 18 17 17 18 18 18 18 18 18 18 18 18 18 18 17 17 18 17 17 17 17 18 18 18 18 19 19 19 19 20 20 20 19 19

GEFSSGP_500_meanwind_270.txt.gz
Wind_Speed
3 2 2 2 2 2 3 3 3 3 3 3 3 3 3 2 2 2 2 2 2 2 3 3 3 3 3 3 3 3 4 5 5 5 5 6 6 6 7 7 7 8 7 7 7 7 7 7 7
2 2 2 2 2 3 3 4 4 4 4 3 3 3 3 3 2 2 2 2 2 3 3 3 3 4 3 4 4 4 5 5 6 5 5 6 6 6 6 7 8 8 9 9 8 8 8 8 8
2 2 2 2 2 3 4 4 4 4 4 3 3 3 3 3 3 3 3 3 3 3 3 4 4 4 4 4 5 5 6 6 6 6 6 6 6 6 6 7 8 8 9 9 9 9 9 9 8
2 2 2 3 3 4 4 4 4 4 3 3 3 3 4 4 4 4 3 4 4 4 3 4 4 4 4 5 5 5 6 6 6 6 6 6 6 6 7 7 8 8 9 9 10 10 9 9 9
2 2 3 3 3 4 5 5 4 4 3 4 4 4 4 4 4 4 4 4 4 4 4 4 4 4 4 5 5 5 6 6 7 7 7 7 7 7 7 8 8 9 9 10 10 9 9 10 10
2 2 2 3 4 4 5 4 4 4 3 4 4 4 4 4 4 4 3 3 4 5 5 5 5 5 5 6 6 5 6 6 6 6 7 7 7 7 7 8 8 9 9 9 10 10 10 10 10
2 2 3 3 4 4 4 4 3 3 3 4 4 4 4 4 4 4 4 4 4 5 5 5 5 6 6 6 6 6 6 6 6 7 7 7 7 8 8 8 8 8 9 10 10 11 11 11 11
2 2 2 3 3 4 4 4 3 4 3 4 4 4 4 4 4 4 4 4 4 5 6 6 6 6 7 7 6 6 6 7 7 7 7 7 7 8 8 8 8 9 9 10 11 11 11 11 11
2 2 2 3 4 4 4 4 4 4 4 4 4 5 5 5 5 5 5 5 5 6 6 7 7 7 7 7 7 7 7 7 7 7 7 8 8 8 8 8 9 9 9 10 11 11 11 11 11
2 2 3 3 4 4 4 4 4 5 5 5 5 5 5 5 5 5 6 6 6 6 7 7 7 7 7 7 7 7 7 7 7 8 8 8 9 9 9 9 9 9 9 10 11 10 11 11 11
3 3 3 4 4 4 4 4 5 5 5 5 5 5 5 5 5 6 6 7 7 7 8 8 8 8 8 8 8 8 8 8 8 8 9 9 9 9 9 10 10 10 10 10 11 10 10 11 11
4 4 4 5 5 5 5 5 6 6 6 6 6 6 6 6 6 6 7 7 7 7 7 7 8 8 8 8 8 8 8 8 8 8 9 9 10 10 10 10 10 10 10 11 11 11 11 11 11
4 5 5 6 6 6 6 6 6 7 7 6 6 6 6 6 6 7 7 7 8 7 7 7 8 8 8 8 8 8 9 9 9 9 9 10 10 9 9 10 11 11 11 11 11 11 11 11 11
6 6 6 6 6 7 7 7 7 7 7 7 7 7 7 7 7 8 8 8 8 8 8 8 9 9 8 8 8 9 10 10 10 10 10 10 10 10 10 10 10 11 11 11 11 11 11 12 12
7 7 7 7 8 8 8 7 7 7 8 8 8 8 8 8 8 9 9 8 8 8 8 9 9 10 10 9 9 10 10 10 10 10 10 10 10 10 10 10 11 11 11 12 11 11 12 12 12
7 8 8 8 9 8 8 8 9 8 8 8 8 8 8 8 9 9 9 9 9 9 9 9 10 10 10 10 9 9 10 10 10 10 10 10 10 10 11 11 11 12 11 11 12 11 11 11 11
8 8 9 9 9 9 9 9 9 9 9 9 9 10 10 10 10 10 9 9 9 10 10 10 10 10 10 10 10 10 10 10 10 10 10 10 10 10 11 11 11 11 12 11 11 11 11 12 12
8 9 10 10 10 10 10 9 9 9 9 10 10 11 11 11 11 10 10 10 10 11 11 11 11 11 11 11 11 10 11 11 10 10 10 10 10 10 10 11 11 11 11 10 11 11 11 11 12
10 10 10 10 10 11 11 10 10 10 10 10 10 11 11 11 12 12 11 11 11 11 11 11 11 11 11 11 11 11 11 11 11 11 11 11 11 11 10 11 11 11 11 11 11 11 11 11 12
11 11 11 11 12 12 12 11 10 10 10 11 11 11 11 12 12 12 12 11 11 12 12 12 12 12 12 12 12 12 11 11 11 11 11 10 11 11 11 11 11 11 11 11 11 11 11 11 11
12 12 12 13 13 13 13 12 12 12 12 12 12 11 12 12 12 12 12 12 12 12 13 13 13 13 12 12 13 12 12 12 12 12 11 11 11 11 11 11 12 12 12 12 12 12 12 12 12
13 13 14 13 14 14 14 13 12 13 12 12 12 12 12 12 12 12 12 12 12 13 13 13 13 13 13 13 13 13 13 13 13 12 12 12 12 12 11 12 12 11 12 12 12 13 13 13 13
14 14 14 14 14 15 14 14 13 13 13 13 13 13 13 13 13 13 13 13 13 13 13 14 14 14 14 14 14 13 13 14 13 13 13 13 13 12 12 12 12 11 12 12 12 12 13 13 13
15 15 15 15 15 15 15 15 14 14 13 13 14 14 14 14 14 14 14 14 14 14 14 14 14 14 14 14 14 14 14 14 14 14 13 13 13 13 13 13 13 13 13 13 12 12 13 13 13
15 15 15 15 15 15 15 15 15 15 15 15 15 16 15 15 15 15 15 15 15 15 14 14 14 15 15 15 15 15 15 15 15 15 15 14 14 14 15 15 14 14 14 14 14 14 14 14 14
15 15 15 16 16 16 16 16 17 16 16 16 17 17 16 16 16 15 16 16 17 16 15 15 15 15 15 16 16 16 16 16 16 16 16 15 15 15 16 15 15 15 16 16 15 16 16 16 16
15 16 16 17 17 17 17 17 18 17 17 17 17 17 17 17 16 16 17 17 17 16 16 16 16 15 16 16 17 17 17 17 17 17 17 16 16 16 16 16 16 16 16 17 17 16 17 17 17
16 16 17 17 17 17 17 17 18 18 18 18 17 17 17 17 17 17 17 17 17 17 17 17 17 17 16 17 18 18 18 18 18 18 18 17 17 17 17 17 17 17 17 17 17 18 18 18 18
17 17 17 18 18 18 18 18 18 19 19 19 18 18 18 18 18 18 18 18 18 18 17 17 17 17 17 18 18 19 19 19 19 18 18 18 18 19 18 18 18 18 18 19 19 19 18 19 19
18 18 18 19 19 19 20 20 19 19 20 20 19 19 19 19 19 18 18 18 18 19 19 19 18 18 18 19 19 19 20 19 19 19 19 18 18 18 18 18 19 19 19 19 19 19 19 19 18

GEFSSGP_500_meanwind_276.txt.gz
Wind_Speed
3 3 3 2 2 3 4 4 5 5 5 5 5 6 5 5 5 5 5 5 4 4 4 4 4 5 5 5 5 6 6 6 6 6 6 7 8 8 8 8 8 8 8 8 8 8 8 7 7
2 2 2 3 3 3 4 5 5 5 5 5 5 5 5 5 5 5 5 5 5 4 4 5 5 5 5 5 5 6 6 6 7 6 6 7 8 8 8 8 8 8 8 9 9 9 9 9 9
2 2 2 3 3 4 4 5 6 6 5 5 5 5 5 5 5 5 5 5 5 5 5 5 5 5 5 5 5 6 6 7 7 7 7 7 8 8 8 9 9 9 9 9 9 9 9 9 9
2 3 3 2 3 4 5 6 6 6 5 6 6 6 5 5 5 5 5 6 6 5 5 5 5 5 5 5 6 6 7 7 7 7 7 8 8 8 8 9 9 9 9 9 9 9 10 10 10
2 2 2 3 4 4 5 6 6 6 5 6 6 6 5 5 6 6 6 6 5 5 5 5 5 6 6 6 6 7 7 7 7 7 7 8 8 8 8 9 9 9 9 10 10 10 10 11 11
2 2 2 3 4 4 5 5 6 7 6 6 7 6 6 6 6 6 6 6 6 6 6 6 6 6 6 7 7 7 7 7 7 7 7 8 8 9 9 9 9 9 10 10 10 10 10 11 12
2 2 2 3 4 4 5 6 7 7 7 7 7 7 6 6 6 6 6 6 7 6 6 6 6 6 6 7 7 7 7 7 8 8 8 8 8 9 9 10 10 10 10 11 11 12 12 12 12
3 2 3 3 4 5 5 6 6 7 7 7 7 7 6 6 6 7 7 7 7 7 7 7 7 7 7 7 8 8 8 8 9 9 9 9 9 9 9 10 10 10 10 11 11 12 13 13 13
3 2 3 4 5 5 6 6 6 7 7 7 7 7 7 7 7 8 8 8 8 8 9 8 8 8 8 8 9 9 8 9 9 9 9 9 9 10 10 10 10 10 10 11 11 12 13 13 13
3 3 4 5 6 6 6 6 6 6 7 7 7 7 8 8 9 9 9 9 9 9 9 9 9 9 9 9 9 9 9 9 10 10 10 10 10 10 10 11 10 10 10 11 12 13 13 13 12
3 4 5 6 6 6 6 6 7 8 7 7 8 8 8 9 9 10 10 10 11 10 9 9 9 9 9 9 9 9 9 9 10 10 10 11 11 11 11 11 11 11 11 11 12 12 13 12 12
4 4 5 5 6 6 6 7 8 8 8 8 8 9 9 9 10 10 10 10 10 10 9 10 10 10 10 10 9 10 10 10 11 11 11 11 11 11 11 11 11 12 12 12 12 13 13 13 13
5 5 5 5 6 7 7 8 8 8 8 9 9 10 10 10 10 10 10 10 10 10 10 11 11 11 10 10 10 11 11 11 12 12 11 11 11 12 12 12 11 11 12 12 13 13 13 14 14
6 6 6 6 7 8 8 8 9 8 9 9 10 10 10 10 10 10 10 10 10 10 10 11 11 11 11 10 11 11 11 12 12 12 12 12 12 12 12 12 12 12 12 12 12 13 13 13 13
7 7 7 7 8 9 9 9 9 9 10 10 11 11 11 11 11 11 11 11 11 10 11 11 11 11 12 11 11 12 12 12 12 12 12 12 12 12 12 12 12 13 13 13 13 13 13 13 14
8 8 8 8 9 10 10 10 10 10 10 11 11 11 11 11 12 12 12 11 12 11 11 11 12 12 12 12 12 13 13 12 12 12 12 12 12 12 12 12 13 13 14 14 14 13 13 13 13
8 9 9 10 11 11 11 11 10 11 12 12 12 12 12 12 13 13 12 12 12 12 12 12 12 13 13 13 13 13 13 13 12 12 12 12 12 12 12 12 13 13 14 13 12 12 12 12 12
9 9 11 12 12 12 12 12 11 12 13 13 13 13 13 13 13 13 13 13 13 13 13 13 13 13 14 14 14 13 13 13 13 12 12 13 13 13 12 13 13 13 13 13 12 12 12 12 12
10 10 12 13 14 14 14 14 13 13 14 14 13 13 13 13 13 13 13 13 13 13 13 13 13 14 14 14 14 14 13 13 13 13 13 13 13 13 13 13 13 14 14 13 12 12 12 12 11
11 12 13 15 15 15 15 15 14 14 14 14 14 14 14 13 13 13 14 14 13 13 13 13 14 14 14 15 15 14 14 14 14 14 14 14 13 13 13 13 13 14 13 13 13 13 12 12 12
12 13 14 15 15 15 16 16 15 14 14 15 15 15 16 15 14 14 15 14 13 13 14 14 14 15 15 15 15 15 15 15 15 15 15 14 14 14 14 14 14 13 13 13 13 13 13 13 13
14 14 14 15 16 16 16 17 15 15 14 16 16 16 16 16 16 16 16 15 14 14 15 15 15 15 15 15 15 15 15 15 15 15 15 15 15 15 15 15 15 14 14 14 13 13 13 14 14
15 15 15 15 15 16 16 17 16 16 15 16 17 17 17 17 16 16 16 16 16 15 15 16 16 16 15 16 16 16 15 15 16 16 15 15 15 15 15 15 15 15 14 14 13 13 13 14 14
15 15 15 15 15 15 14 16 17 16 17 18 18 18 18 17 17 17 16 16 17 16 16 16 16 16 16 17 17 16 16 16 16 16 16 16 16 16 16 16 15 15 15 15 14 14 14 14 15
15 15 14 15 15 15 14 16 17 18 19 19 19 19 19 18 18 17 17 17 17 18 17 17 16 17 16 17 17 16 16 16 16 16 16 16 16 16 16 17 16 16 16 15 15 14 15 15 15
15 15 14 14 13 14 16 17 19 20 20 20 20 20 20 19 19 19 18 18 18 18 17 17 18 17 17 17 17 18 17 16 16 16 16 17 17 17 16 16 17 17 17 17 16 16 16 16 16
16 15 15 16 16 17 16 18 20 21 21 20 20 20 20 20 20 19 19 19 18 18 18 19 19 18 18 18 18 17 17 17 17 17 18 18 18 18 18 17 17 17 17 18 18 18 18 18 18
16 16 16 16 17 17 15 17 21 22 22 21 21 20 20 21 20 19 19 19 19 19 20 20 20 19 19 19 18 18 18 18 18 19 19 19 20 19 19 19 19 19 19 19 19 20 20 19 19
16 16 17 17 18 17 17 19 20 22 23 22 22 22 21 21 21 20 20 20 20 21 21 21 21 20 20 20 19 20 20 20 20 20 20 20 21 21 21 20 20 20 20 20 20 20 20 20 20
18 18 18 18 19 18 20 22 22 23 24 24 23 23 22 22 21 21 21 21 21 22 22 22 22 22 21 21 20 21 22 22 22 22 22 21 22 22 22 22 21 21 21 21 21 21 21 21 20

GEFSSGP_500_meanwind_282.txt.gz
Wind_Speed
2 2 2 2 2 2 2 2 2 2 3 3 3 3 3 3 3 2 2 2 2 2 2 3 3 3 3 4 4 4 4 5 5 6 6 7 7 7 7 8 8 8 7 7 7 7 7 7 7
2 2 2 2 2 2 2 2 2 3 3 3 3 3 3 3 3 2 2 2 2 2 2 3 3 4 4 4 4 4 5 5 5 6 7 7 7 7 7 8 8 8 8 9 9 9 8 8 8
3 3 2 3 3 3 3 3 3 2 3 3 3 2 2 3 3 2 2 2 3 3 3 3 4 4 4 4 4 5 5 5 5 6 6 6 7 7 7 8 8 8 8 9 9 9 9 9 9
3 3 3 3 3 2 3 3 3 3 3 3 3 2 2 3 3 2 3 3 3 4 4 4 4 4 5 5 5 5 5 5 5 5 6 6 7 7 8 8 8 8 8 9 10 10 10 10 10
3 3 4 3 3 2 3 3 3 3 3 3 3 3 3 3 3 3 3 4 4 4 4 4 4 5 5 5 5 5 5 5 5 6 6 6 7 7 8 9 9 9 9 10 10 10 10 11 10
3 4 4 3 2 2 3 3 3 3 3 3 3 4 4 4 4 4 4 4 5 4 4 5 5 5 5 5 5 5 5 5 5 5 6 6 7 8 8 8 9 10 10 10 11 10 10 11 11
3 3 3 2 2 2 3 3 4 3 4 4 4 4 4 4 4 4 4 4 4 4 4 5 5 5 5 5 5 6 6 6 6 6 6 6 7 8 9 9 9 10 10 10 11 11 11 11 11
3 3 3 3 2 3 3 3 4 4 4 4 4 4 4 4 5 4 4 4 4 5 5 5 5 5 5 5 6 6 6 7 7 6 6 7 7 8 8 9 10 10 11 11 10 10 10 11 11
3 3 2 2 3 3 3 3 4 4 5 5 4 4 4 4 5 5 5 5 5 5 5 5 5 6 6 6 6 7 7 7 7 7 7 7 8 8 9 9 10 10 10 11 11 11 11 11 11
3 3 1 2 3 3 3 4 4 5 5 5 5 4 5 5 5 5 6 6 6 6 6 5 5 5 6 6 6 7 7 7 7 7 7 7 8 9 9 9 10 10 10 11 11 11 11 11 11
3 2 2 2 3 3 3 4 5 6 6 5 5 5 6 6 6 6 6 6 6 6 6 6 5 5 6 6 6 7 7 7 7 7 8 8 8 9 9 10 10 10 11 11 11 11 11 11 11
3 2 3 3 3 3 4 5 5 5 6 6 6 6 6 7 7 7 7 7 7 6 6 6 6 6 6 6 7 7 7 8 8 8 8 8 8 9 10 10 10 10 11 11 11 11 11 11 12
3 2 3 3 2 3 4 5 5 5 6 6 7 7 7 7 8 8 8 8 7 7 6 6 6 6 7 7 7 7 8 8 8 9 9 9 9 10 10 10 10 10 10 11 11 11 11 11 11
4 3 3 3 3 4 4 5 6 6 6 7 7 8 8 8 8 8 8 7 7 7 7 7 7 7 7 8 8 8 8 9 9 9 9 9 10 10 10 10 10 10 10 10 11 11 11 11 11
5 5 4 3 3 4 5 5 6 6 7 8 8 9 9 9 9 8 8 8 7 8 8 8 7 7 7 8 8 8 9 9 10 10 9 10 10 10 10 10 10 10 10 10 10 11 11 11 11
6 5 5 5 5 5 6 6 7 6 7 8 9 10 10 9 9 9 8 8 8 8 8 8 8 8 8 9 9 9 9 9 10 10 10 10 10 11 10 10 10 10 10 10 11 11 11 11 11
7 7 6 6 6 6 6 7 7 8 8 9 10 9 9 9 9 10 10 9 9 9 8 9 9 9 9 9 9 9 10 10 11 11 11 11 11 11 10 10 10 11 11 10 11 11 11 11 11
8 8 8 7 8 7 8 8 8 8 9 10 10 9 9 10 9 10 10 10 10 10 9 9 10 11 11 11 10 11 11 11 11 11 11 11 11 11 11 10 11 11 11 11 11 10 11 11 11
9 9 9 8 8 9 9 9 9 9 10 10 9 9 10 10 10 10 10 11 11 11 10 10 11 11 11 11 11 12 11 11 11 12 12 12 11 11 11 10 10 10 10 10 10 11 11 11 11
11 10 10 10 10 11 11 11 10 10 10 10 10 10 10 10 11 11 11 12 12 11 12 11 12 12 12 12 12 12 13 13 12 12 12 11 11 12 12 11 10 10 11 11 11 11 11 11 12
11 11 12 12 12 12 12 11 11 10 10 11 10 10 9 10 11 11 12 12 13 13 13 14 14 14 13 12 12 12 13 13 14 14 13 12 12 12 13 12 11 12 12 11 11 11 11 11 12
13 13 13 13 13 13 13 12 12 12 11 11 11 10 10 10 11 12 13 13 13 14 14 14 14 14 13 13 13 12 13 14 14 14 14 13 13 13 13 12 12 13 13 12 12 12 12 12 12
13 13 14 14 14 14 14 14 12 13 12 12 11 11 12 12 12 13 13 14 14 15 15 15 14 14 14 14 13 13 13 13 14 14 14 14 13 13 13 13 13 13 14 13 13 13 13 12 13
13 14 14 15 15 14 14 15 12 12 12 11 11 12 12 13 13 14 14 14 14 15 15 15 15 15 15 15 14 14 14 14 14 14 14 14 14 14 14 14 14 14 14 13 13 13 14 13 14
13 14 15 16 15 15 15 15 14 13 12 11 11 12 12 13 13 14 15 15 15 15 15 16 16 16 15 15 15 15 14 14 14 14 14 14 15 15 15 15 15 15 15 14 14 14 14 15 15
14 14 15 16 16 16 16 16 14 14 13 13 13 13 13 14 14 15 15 16 16 16 16 16 16 17 17 16 16 16 15 15 15 15 15 16 16 16 16 16 16 16 16 16 15 15 15 16 16
15 15 16 17 17 18 17 16 15 15 15 15 15 14 15 15 15 16 16 17 17 17 17 17 17 18 18 18 17 17 16 16 17 17 16 16 17 17 17 17 17 17 17 17 17 17 17 17 17
15 16 16 16 18 18 18 17 17 16 16 16 16 16 17 17 16 17 17 18 18 18 19 19 19 19 19 19 18 17 17 17 18 18 17 17 18 18 18 19 19 19 19 19 19 19 19 19 19
16 16 16 17 18 19 19 18 17 17 17 18 18 19 18 18 17 18 19 19 20 20 20 20 20 20 20 20 19 18 18 18 18 19 19 19 19 19 19 20 20 20 20 20 20 20 21 21 21
17 17 17 18 18 19 20 19 17 19 20 20 21 20 20 19 19 20 20 20 20 20 20 20 21 20 20 20 20 20 20 20 20 20 20 20 20 20 20 20 21 21 21 21 21 22 22 22 22